Location: Absher
(46.5583°N, 107.9840°W)
Time: 18:50:21
(UTC+00:00)

AO-85 - Visible Passes

Search period start: 30 May 2024 00:00
Search period end: 09 June 2024 00:00
Orbit: 490 x 755 km, 64.8° (Epoch: 29 May)

Date Brightness Start Highest point End Pass type
(mag) Time Alt. Az. Time Alt. Az. Time Alt. Az.
30 May ? 04:42:00 10° NNW 04:47:07 52° NE 04:50:46 19° ESE visible
30 May ? 06:22:25 10° NW 06:26:57 30° WSW 06:27:57 28° SW visible
31 May ? 05:00:23 10° NW 05:05:40 89° NE 05:08:37 27° SE visible
31 May ? 06:41:55 10° WNW 06:45:01 16° WSW 06:45:49 15° WSW visible
01 Jun ? 03:39:03 10° NNW 03:43:48 34° NE 03:48:33 10° ESE visible
01 Jun ? 05:18:57 10° NW 05:24:03 51° WSW 05:26:31 28° S visible
02 Jun ? 03:57:18 10° NNW 04:02:28 55° NE 04:07:15 12° SE visible
02 Jun ? 05:37:48 10° WNW 05:42:14 28° WSW 05:44:27 21° SSW visible
03 Jun ? 04:15:41 10° NW 04:20:58 87° SW 04:25:13 16° SSE visible
03 Jun ? 05:57:24 10° WNW 06:00:16 15° WSW 06:02:25 12° SW visible
04 Jun ? 04:34:15 10° NW 04:39:18 48° WSW 04:43:14 16° S visible
05 Jun ? 04:53:08 10° WNW 04:57:27 26° WSW 05:01:17 12° SSW visible
06 Jun ? 05:12:49 10° WNW 05:15:26 14° WSW 05:18:02 10° SW visible
07 Jun ? 03:49:27 10° NW 03:54:28 46° WSW 03:59:26 10° S visible
08 Jun ? 04:08:21 10° WNW 04:12:35 25° WSW 04:16:45 10° SSW visible
